Flag for Kazakhstan Weather past 2 weeks in Qyzylorda, Kazakhstan

Now
39 °F

Overcast.


Feels Like: 29 °F
Forecast: 30 / 42 °F
Wind: 22 mph from Southwest

Location: Kzyl-Orda

Current Time: Dec 25, 2014 at 4:15:31 PM

Latest Report: Dec 25, 2014 at 3:30 PM


Visibility: N/A

Pressure: 29.86 "Hg

Humidity: 93%

Dew point: 37 °F

Location of QyzylordaLocation

Historic Weather in Qyzylorda — Graph

°F

Qyzylorda temperature yesterday

Maximum temperature yesterday: 34 °F (at 12:30 PM)
Minimum temperature yesterday: 28 °F (at 12:00 AM)
Average temperature yesterday: 32 °F

Past Weeks' High & Low Weather Summary

 TemperatureHumidityPressure
High41 °F (Dec 20, 3:00 PM)100% (Dec 17, 2:00 AM)30.66 "Hg (Dec 17, 2:00 AM)
Low7 °F (Dec 15, 8:30 AM)55% (Dec 13, 2:30 PM)29.80 "Hg (Dec 25, 12:30 PM)
Average23 °F84%30.31 "Hg
* Reported Dec 10 3:00 PM — Dec 25 3:00 PM, Qyzylorda, Weather by CustomWeather, © 2014

Note: Actual official high and low records may vary slightly from our data, if they occured in-between our weather recording intervals... More about our weather records

Advertising

Qyzylorda weather history for previous 24 hours

 ConditionsComfort  
Time TempWeatherWind HumidityBarometerVisibility
3:00 PM
Dec 25
39 °FOvercast.22 mph93%29.83 "HgN/A
2:30 PM39 °FLight rain. Overcast.24 mph93%29.83 "Hg6 mi
2:00 PM39 °FSprinkles. Overcast.24 mph93%29.83 "Hg4 mi
1:30 PM41 °FSprinkles. Overcast.31 mph87%29.83 "Hg4 mi
1:00 PM41 °FLight rain. Overcast.22 mph81%29.80 "Hg6 mi
12:30 PM41 °FOvercast.20 mph81%29.80 "HgN/A
12:00 PM41 °FOvercast.20 mph81%29.83 "HgN/A
11:30 AM41 °FSunny.22 mph81%29.83 "Hg10 mi
11:00 AM39 °FSunny.22 mph87%29.83 "Hg10 mi
10:30 AM39 °FSunny.22 mph87%29.83 "Hg10 mi
9:30 AM37 °FClear.20 mph93%29.86 "Hg10 mi
9:00 AM36 °FClear.20 mph93%29.86 "Hg10 mi
8:30 AM36 °FOvercast.22 mph93%29.89 "HgN/A
8:00 AM36 °FOvercast.22 mph93%29.89 "HgN/A
7:30 AM36 °FOvercast.20 mph93%29.89 "HgN/A
7:00 AM34 °FOvercast.20 mph100%29.92 "HgN/A
6:00 AM34 °FFog.17 mph93%29.95 "Hg3 mi
5:00 AM36 °FFog.15 mph93%29.98 "Hg3 mi
4:00 AM34 °FFog.13 mph100%29.98 "Hg3 mi
3:00 AM34 °FFog.10 mph93%30.01 "Hg3 mi
2:00 AM34 °FFog.8 mph93%30.01 "Hg3 mi
1:00 AM34 °FFog.10 mph93%30.01 "Hg3 mi
12:00 AM32 °FDrizzle. Overcast.8 mph100%30.01 "Hg6 mi
11:30 PM
Dec 24
32 °FDrizzle. Low clouds.8 mph100%30.01 "Hg3 mi
11:00 PM34 °FDrizzle. Overcast.10 mph100%30.01 "Hg3 mi
10:30 PM34 °FFog.10 mph100%30.01 "Hg2 mi
10:00 PM32 °FIce fog.10 mph100%29.98 "Hg1 mi
9:30 PM32 °FIce fog.10 mph100%29.98 "Hg1 mi
9:00 PM32 °FIce fog.10 mph100%29.98 "Hg1 mi
8:30 PM32 °FIce fog.8 mph100%29.98 "Hg1 mi
8:00 PM32 °FIce fog.8 mph100%29.98 "Hg1 mi
7:30 PM32 °FIce fog.10 mph100%29.98 "Hg1 mi
7:00 PM34 °FFog.8 mph100%29.95 "Hg0 mi
6:30 PM34 °FFog.8 mph100%29.95 "Hg0 mi
6:00 PM34 °FFog.10 mph100%29.95 "Hg0 mi
5:30 PM34 °FFog.10 mph100%29.92 "Hg0 mi
5:00 PM34 °FFog.10 mph100%29.92 "Hg0 mi
4:30 PM34 °FFog.10 mph100%29.92 "Hg1 mi
4:00 PM34 °FLight freezing rain. Fog.8 mph100%29.89 "Hg1 mi
Weather by CustomWeather, © 2014

See weather overviewHow to use our weather pages